Find Starlink 36599

NORAD ID: 67638 Int'l Des: 2026-020 Owner: SPXS Country: US Constellation: starlink operational
LEOCIRCULAR

Current View

Loading 3D Globe...

About Starlink 36599

Description loading...

Upcoming Passes

Passes for default location (London). Set your location on the main map for personalized predictions.

Altitude History

Loading altitude history...

Two-Line Element Set

1 67638U 26020X 26146.13798079 .00035913 00000-0 13077-2 0 9994
2 67638 43.0041 62.7848 0001431 265.9524 94.1164 15.27594778 17953
Epoch: May 26, 2026 • Age: 15 hours

Current Status

Altitude 490.2 km
Velocity 7.62 km/s
Sub-Earth Point -30.21°S, 145.55°W
Launch Date Jan 30, 2026
Age 0.3 years
Type internet

Technical Details

Classification Payload
Mass 575.00 kg
Dry Mass 530.00 kg
Total Mass 575.00 kg
Length 0.30 m
Diameter 4.10 m
Span 29.00 m
Shape Box + pan
Manufacturer SPXS
Bus Type Starlink V2MO
Phase Status In Orbit
Owner/State SPXS/US

Most Searched